Regional Weather Roundup
Issued by NWS Northern Indiana

Home | Current Version | Previous Version | Graphics & Text | Print | Product List | Glossary On
Versions: 1 2 3 4 5 6 7 8 9 10 11 12 13 14 15 16 17 18 19 20 21 22 23 24 25 26 27 28 29 30 31 32 33 34 35 36 37 38 39 40 41 42 43 44 45 46 47 48 49 50
000
ASUS43 KIWX 280600
RWRIWX

KIWX WEATHER ROUNDUP
NATIONAL WEATHER SERVICE NORTHERN INDIANA
100 AM EST SUN DEC 28 2014

NOTE: "FAIR" INDICATES FEW OR NO CLOUDS BELOW 12,000 FEET WITH NO
SIGNIFICANT WEATHER AND/OR OBSTRUCTIONS TO VISIBILITY.

* THESE STATIONS ARE NOT UNDER NWS QUALITY CONTROL. THEY ALSO MAY NOT
  REPORT WEATHER SUCH AS PRECIPITATION OR FOG.

INZ001>027-280700-
NORTHERN INDIANA

CITY           SKY/WX    TMP DP  RH WIND       PRES   REMARKS
KNOX*          CLOUDY    33  26  75 W7        30.08S WCI  27
6HR MIN TEMP:   9; 6HR MAX TEMP:  81;

SOUTH BEND     CLOUDY    35  28  75 W8        30.06F WCI  29
6HR MIN TEMP:  35; 6HR MAX TEMP:  38;

WARSAW*        CLOUDY    32  30  93 W9        30.06F WCI  24
ANGOLA*        CLOUDY    34  30  86 NW12      30.02F WCI  25
FORT WAYNE     CLOUDY    33  32  96 W8        30.05F WCI  26
6HR MIN TEMP:  32; 6HR MAX TEMP:  43; 6HR PCP:  0.17;


$$
INZ028>050-280700-
CENTRAL INDIANA

CITY           SKY/WX    TMP DP  RH WIND       PRES   REMARKS
LAFAYETTE      CLOUDY    31  27  85 NW14G21   30.11F WCI  21
6HR MIN TEMP:  31; 6HR MAX TEMP:  37; 6HR PCP:  0.07;

KOKOMO*        CLOUDY    32  27  80 NW13G18   30.07F WCI  22
6HR MIN TEMP:  32; 6HR MAX TEMP:  41; 6HR PCP:  0.14;

MUNCIE*        MIX PCPN  34  32  92 W8        30.06F WCI  27
6HR MIN TEMP:  34; 6HR MAX TEMP:  46; 6HR PCP:  0.15;

INDIANAPOLIS   CLOUDY    33  32  96 NW8       30.09F WCI  26
6HR MIN TEMP:  33; 6HR MAX TEMP:  45; 6HR PCP:  0.14;


$$
MIZ043>046-050>051-056>058-064>065-071>073-077>080-280700-
SOUTHWEST LOWER MICHIGAN

CITY           SKY/WX    TMP DP  RH WIND       PRES   REMARKS
COLDWATER*     CLOUDY    34  30  85 W12G18    30.02F WCI  25
6HR MIN TEMP:  34; 6HR MAX TEMP:  40;

HILLSDALE*     CLOUDY    35  32  89 W10       29.99F WCI  27
6HR MIN TEMP:  35; 6HR MAX TEMP:  44;

STURGIS*       CLOUDY    34  30  86 W9G16     30.03F WCI  26
THREE RIVERS*  CLOUDY    35  30  82 W9        30.04F WCI  28
6HR MIN TEMP:  35; 6HR MAX TEMP:  38;


$$
OHZ001>008-015>018-024>025-280700-
NORTHWEST OHIO

CITY           SKY/WX    TMP DP  RH WIND       PRES   REMARKS
TOLEDO EXPRESS CLOUDY    36  34  93 W9        30.01F
TOLEDO METCALF CLOUDY    37  33  85 W10       30.02F
6HR MIN TEMP:  36; 6HR MAX TEMP:  48; 6HR PCP:  0.09;


$$
AND FOR LAKE MICHIGAN COASTAL AND OPEN LAKE BUOY OBSERVATIONS

STATION/POSITION TEMP    WIND        PRES    VSBY  WAVE
                 AIR SEA DIR/SP/G                  HT/PER
                 (F)     (DEG/KT/KT) (MB)    (MI)  (FT/S)
CALUMET HARBOR    33     260/ 10/ 16 1018.0F
MICHIGAN CITY     35     270/ 18/ 20   N/A
SAINT JOSEPH      37     280/ 13/ 18 1018.6F

$$
&&


USA.gov is the U.S. government's official web portal to all federal, state and local government web resources and services.